User: anonymous   Login
Location: Allen Lane School
(37.8198°N, 89.7382°W)
Time: 03:01:42
(UTC+00:00)
Language:

Cosmos 44 Rocket - Orbit

View from above orbital plane
View from above orbital plane
View from above satellite
View from above satellite

Ground track
Ground track

The orbit data is extracted from the following two-line orbital elements,

1 00877U 64053B   22145.89091278  .00000265  00000-0  79281-4 0  9992
2 00877  65.0792  61.4377 0052438 132.1979 228.3589 14.59532320 64725
Epoch (UTC): 25 May 2022 21:22:54
Eccentricity: 0.0052438
inclination: 65.0792°
perigee height: 657 km
apogee height: 732 km
right ascension of ascending node: 61.4377°
argument of perigee: 132.1979°
revolutions per day: 14.59532320
mean anomaly at epoch: 228.3589°
orbit number at epoch: 6472

The dashed part of the orbit path shows where the satellite is in the earth's shadow,  

DLR